Overview Statistics Trail Chart Weather Telemetry Raw packets
 

This is the latest recevied weather packets stored in our database for station/object K6CED. If no packets are shown the sender has not sent any weather packets the latest 10 day(s).

<< 7 8 9 10 11 12 13 >>
Time Temp. Humidity Pressure Rain* Wind** Luminosity Snow
1788617914 15° C 67% 1016.7 hPa 0 mm - 81 W/m² -
1788617609 13.89° C 68% 1017 hPa 0 mm - 42 W/m² -
1788617305 13.89° C 69% 1016.7 hPa 0 mm - 19 W/m² -
1788617000 13.89° C 70% 1016.9 hPa 0 mm - 44 W/m² -
1788616699 12.78° C 74% 1016.6 hPa 0 mm - 37 W/m² -
1788616395 11.67° C 74% 1016.4 hPa 0 mm - 22 W/m² -
1788616089 11.67° C 74% 1016.5 hPa 0 mm - 18 W/m² -
1788615783 11.67° C 74% 1016.4 hPa 0 mm - 15 W/m² -
1788615477 11.67° C 75% 1016.4 hPa 0 mm - 12 W/m² -
1788615173 11.67° C 75% 1016.4 hPa 0 mm - 8 W/m² -
1788614872 11.67° C 75% 1016.4 hPa 0 mm - 5 W/m² -
1788614568 11.67° C 76% 1016.2 hPa 0 mm - 3 W/m² -
1788614262 11.67° C 78% 1016.4 hPa 0 mm - 1 W/m² -
1788613957 11.67° C 77% 1016.3 hPa 0 mm - 0 W/m² -
1788613652 11.67° C 76% 1016.4 hPa 0 mm - 0 W/m² -
1788613351 11.67° C 76% 1016.3 hPa 0 mm - 0 W/m² -
1788613047 11.67° C 75% 1016.2 hPa 0 mm - 0 W/m² -
1788612742 11.67° C 74% 1016.3 hPa 0 mm - 0 W/m² -
1788612438 12.22° C 74% 1016.3 hPa 0 mm - 0 W/m² -
1788612134 12.22° C 74% 1016.2 hPa 0 mm - 0 W/m² -
1788611829 12.22° C 73% 1016.4 hPa 0 mm - 0 W/m² -
1788611526 12.22° C 73% 1016.2 hPa 0 mm - 0 W/m² -
1788611225 12.78° C 73% 1016.2 hPa 0 mm - 0 W/m² -
1788610919 12.78° C 73% 1016.2 hPa 0 mm - 0 W/m² -
1788610614 12.22° C 73% 1016.2 hPa 0 mm - 0 W/m² -

* Rain latest hour (hover to see other rain measurements)
** Current wind speed in m/s (hover to see current wind gust speed)